THY43 LTFJ-BKPR

Flight info

Callsign THY43
Flight time 1h 6m
Altitude 34000
Route VADEN N618 BAKLO DCT LETNI DCT XAXAN XAXAN1D
Aircraft B738/M-SDE2E3FGHIRWXY/LB1

Departure

Time 2026-05-04 03:53
Airport Istanbul Sabiha Gökçen International Airport (LTFJ)

Arrival

Time 2026-05-04 04:59
Airport Priština Adem Jashari International Airport (BKPR)
Time Latitude Longitude Altitude Speed Heading
2026-05-04 03:41 40.90530 29.31343 289 ft 0 kts 330°
2026-05-04 03:41 40.90524 29.31347 317 ft 2 kts 331°
2026-05-04 03:41 40.90510 29.31358 315 ft 2 kts 330°
2026-05-04 03:42 40.90496 29.31368 316 ft 2 kts 330°
2026-05-04 03:42 40.90482 29.31379 316 ft 2 kts 330°
2026-05-04 03:42 40.90468 29.31390 317 ft 2 kts 328°
2026-05-04 03:42 40.90454 29.31402 316 ft 2 kts 323°
2026-05-04 03:43 40.90442 29.31417 317 ft 2 kts 267°
2026-05-04 03:43 40.90448 29.31437 317 ft 2 kts 244°
2026-05-04 03:43 40.90455 29.31457 315 ft 2 kts 244°
2026-05-04 03:43 40.90462 29.31476 317 ft 2 kts 244°
2026-05-04 03:44 40.90468 29.31492 316 ft 1 kts 245°
2026-05-04 03:44 40.90469 29.31495 316 ft 0 kts 246°
2026-05-04 03:46 40.90468 29.31493 316 ft 1 kts 245°
2026-05-04 03:46 40.90456 29.31459 315 ft 8 kts 245°
2026-05-04 03:46 40.90416 29.31352 317 ft 17 kts 243°
2026-05-04 03:46 40.90352 29.31174 316 ft 25 kts 245°
2026-05-04 03:47 40.90287 29.31001 317 ft 13 kts 244°
2026-05-04 03:47 40.90235 29.30889 316 ft 10 kts 203°
2026-05-04 03:47 40.90129 29.30928 316 ft 25 kts 152°
2026-05-04 03:47 40.90082 29.30961 316 ft 10 kts 153°
2026-05-04 03:48 40.89969 29.31032 316 ft 20 kts 154°
2026-05-04 03:48 40.89807 29.31132 316 ft 23 kts 161°
2026-05-04 03:48 40.89718 29.31006 315 ft 25 kts 243°
2026-05-04 03:48 40.89630 29.30766 316 ft 33 kts 244°
2026-05-04 03:49 40.89519 29.30463 315 ft 40 kts 245°
2026-05-04 03:49 40.89399 29.30134 316 ft 11 kts 242°
2026-05-04 03:49 40.89366 29.30051 316 ft 8 kts 245°
2026-05-04 03:49 40.89327 29.29942 315 ft 18 kts 244°
2026-05-04 03:50 40.89236 29.29776 316 ft 27 kts 210°
2026-05-04 03:50 40.89040 29.29861 315 ft 35 kts 153°
2026-05-04 03:50 40.88815 29.30008 315 ft 34 kts 157°
2026-05-04 03:50 40.88692 29.30083 315 ft 22 kts 152°
2026-05-04 03:51 40.88532 29.30192 315 ft 11 kts 153°
2026-05-04 03:51 40.88529 29.30194 315 ft 0 kts 153°
2026-05-04 03:51 40.88498 29.30227 315 ft 12 kts 123°
2026-05-04 03:52 40.88528 29.30392 316 ft 30 kts 60°
2026-05-04 03:52 40.88743 29.30898 315 ft 97 kts 62°
2026-05-04 03:52 40.89117 29.31946 323 ft 151 kts 63°
2026-05-04 03:52 40.89564 29.33267 738 ft 167 kts 61°
2026-05-04 03:53 40.90138 29.34740 1172 ft 187 kts 60°
2026-05-04 03:53 40.90265 29.36452 1980 ft 200 kts 97°
2026-05-04 03:53 40.89921 29.38319 2383 ft 221 kts 92°
2026-05-04 03:53 40.89692 29.40407 2741 ft 241 kts 90°
2026-05-04 03:54 40.89495 29.42621 3596 ft 237 kts 89°
2026-05-04 03:54 40.89329 29.44701 3846 ft 223 kts 84°
2026-05-04 03:54 40.89656 29.46631 3860 ft 215 kts 58°
2026-05-04 03:54 40.90346 29.48487 4117 ft 237 kts 58°
2026-05-04 03:55 40.91076 29.50493 4959 ft 245 kts 59°
2026-05-04 03:55 40.91817 29.52532 5924 ft 247 kts 59°
2026-05-04 03:55 40.92314 29.53895 6511 ft 250 kts 58°
2026-05-04 03:55 40.93077 29.55984 6907 ft 253 kts 58°
2026-05-04 03:56 40.93840 29.58075 6975 ft 251 kts 58°
2026-05-04 03:56 40.94598 29.60154 7001 ft 254 kts 58°
2026-05-04 03:56 40.95627 29.62977 7887 ft 256 kts 59°
2026-05-04 03:56 40.96146 29.64405 8588 ft 255 kts 59°
2026-05-04 03:57 40.96917 29.66522 9537 ft 256 kts 59°
2026-05-04 03:57 40.97696 29.68659 10343 ft 262 kts 59°
2026-05-04 03:57 40.98530 29.70921 10593 ft 286 kts 57°
2026-05-04 03:57 40.99808 29.73008 10785 ft 302 kts 34°
2026-05-04 03:58 41.03871 29.74343 11961 ft 320 kts 353°
2026-05-04 03:58 41.06029 29.73647 12729 ft 326 kts 347°
2026-05-04 03:58 41.08235 29.72792 13448 ft 333 kts 347°
2026-05-04 03:59 41.10471 29.71905 14133 ft 339 kts 346°
2026-05-04 03:59 41.12752 29.70998 14866 ft 341 kts 347°
2026-05-04 03:59 41.15040 29.70110 15617 ft 344 kts 347°
2026-05-04 03:59 41.17365 29.69226 16212 ft 350 kts 347°
2026-05-04 04:00 41.19727 29.68332 16810 ft 356 kts 347°
2026-05-04 04:00 41.22120 29.67429 17443 ft 359 kts 347°
2026-05-04 04:00 41.24544 29.66514 18054 ft 364 kts 347°
2026-05-04 04:00 41.26992 29.65590 18607 ft 368 kts 347°
2026-05-04 04:01 41.29475 29.64662 19139 ft 372 kts 349°
2026-05-04 04:01 41.31995 29.64143 19665 ft 371 kts 359°
2026-05-04 04:01 41.34587 29.63943 20217 ft 374 kts
2026-05-04 04:01 41.37202 29.63770 20734 ft 378 kts
2026-05-04 04:02 41.39842 29.63578 21288 ft 381 kts 359°
2026-05-04 04:02 41.42491 29.63359 21835 ft 384 kts 359°
2026-05-04 04:02 41.45175 29.63119 22269 ft 389 kts 359°
2026-05-04 04:02 41.47912 29.62865 22522 ft 398 kts 359°
2026-05-04 04:03 41.50701 29.62600 22999 ft 402 kts 359°
2026-05-04 04:03 41.53485 29.62149 23531 ft 408 kts 348°
2026-05-04 04:03 41.56071 29.60585 23906 ft 422 kts 329°
2026-05-04 04:03 41.58260 29.57916 24318 ft 434 kts 313°
2026-05-04 04:04 41.59840 29.54430 24693 ft 447 kts 295°
2026-05-04 04:04 41.60640 29.50366 25076 ft 455 kts 284°
2026-05-04 04:04 41.61214 29.46179 25434 ft 459 kts 282°
2026-05-04 04:04 41.61755 29.41944 25770 ft 462 kts 282°
2026-05-04 04:05 41.62303 29.37699 26195 ft 463 kts 282°
2026-05-04 04:05 41.62874 29.33453 26573 ft 466 kts 282°
2026-05-04 04:05 41.63468 29.29178 26900 ft 469 kts 283°
2026-05-04 04:05 41.64068 29.24933 27217 ft 472 kts 283°
2026-05-04 04:06 41.64682 29.20614 27560 ft 474 kts 283°
2026-05-04 04:06 41.65296 29.16262 27893 ft 477 kts 283°
2026-05-04 04:06 41.65905 29.11869 28212 ft 480 kts 281°
2026-05-04 04:06 41.66248 29.07403 28528 ft 484 kts 274°
2026-05-04 04:07 41.66319 29.02948 28864 ft 486 kts 271°
2026-05-04 04:07 41.66316 28.98407 29165 ft 488 kts 271°
2026-05-04 04:07 41.66333 28.93854 29510 ft 490 kts 272°
2026-05-04 04:07 41.66400 28.89303 29944 ft 488 kts 272°
2026-05-04 04:08 41.66496 28.84769 30363 ft 487 kts 272°
2026-05-04 04:08 41.66599 28.80251 30772 ft 485 kts 272°
2026-05-04 04:08 41.66694 28.75753 31168 ft 483 kts 272°
2026-05-04 04:08 41.66784 28.71269 31518 ft 482 kts 271°
2026-05-04 04:09 41.66870 28.66846 31911 ft 480 kts 271°
2026-05-04 04:09 41.66956 28.62344 32355 ft 477 kts 271°
2026-05-04 04:09 41.67031 28.57970 32743 ft 475 kts 271°
2026-05-04 04:09 41.67081 28.53582 33349 ft 468 kts 271°
2026-05-04 04:10 41.67126 28.49261 33947 ft 462 kts 271°
2026-05-04 04:10 41.67171 28.44949 34007 ft 466 kts 271°
2026-05-04 04:10 41.67260 28.36266 34025 ft 466 kts 271°
2026-05-04 04:11 41.67345 28.27632 34024 ft 462 kts 271°
2026-05-04 04:11 41.67425 28.19100 34025 ft 458 kts 271°
2026-05-04 04:12 41.67500 28.10597 34019 ft 456 kts 271°
2026-05-04 04:12 41.68146 28.02278 34030 ft 452 kts 291°
2026-05-04 04:13 41.69590 27.98560 34041 ft 451 kts 303°
2026-05-04 04:13 41.71317 27.95028 34038 ft 455 kts 304°
2026-05-04 04:13 41.74851 27.87931 34030 ft 459 kts 304°
2026-05-04 04:14 41.78367 27.80760 34043 ft 461 kts 304°
2026-05-04 04:14 41.81864 27.73513 34036 ft 463 kts 304°
2026-05-04 04:15 41.85334 27.66279 34036 ft 463 kts 303°
2026-05-04 04:15 41.88812 27.59011 34051 ft 462 kts 303°
2026-05-04 04:16 41.92278 27.51754 34061 ft 461 kts 303°
2026-05-04 04:16 41.95729 27.44515 34045 ft 459 kts 303°
2026-05-04 04:17 41.99162 27.37296 34043 ft 457 kts 303°
2026-05-04 04:17 42.02580 27.30093 34068 ft 456 kts 303°
2026-05-04 04:18 42.05963 27.22945 34059 ft 455 kts 303°
2026-05-04 04:18 42.09847 27.16235 34075 ft 454 kts 313°
2026-05-04 04:19 42.14152 27.10007 34068 ft 454 kts 314°
2026-05-04 04:19 42.18422 27.03775 34069 ft 455 kts 313°
2026-05-04 04:20 42.22658 26.97432 34065 ft 455 kts 312°
2026-05-04 04:20 42.26874 26.91048 34079 ft 456 kts 312°
2026-05-04 04:21 42.31079 26.84663 34071 ft 457 kts 312°
2026-05-04 04:21 42.35313 26.78226 34079 ft 458 kts 312°
2026-05-04 04:22 42.39547 26.71777 34077 ft 459 kts 312°
2026-05-04 04:22 42.43798 26.65289 34099 ft 460 kts 312°
2026-05-04 04:23 42.48047 26.58791 34096 ft 461 kts 312°
2026-05-04 04:23 42.52166 26.52188 34082 ft 463 kts 301°
2026-05-04 04:24 42.53443 26.48186 34113 ft 463 kts 284°
2026-05-04 04:24 42.53867 26.43868 34094 ft 463 kts 268°
2026-05-04 04:24 42.53055 26.35211 34105 ft 463 kts 261°
2026-05-04 04:25 42.52106 26.26558 34096 ft 464 kts 261°
2026-05-04 04:25 42.51198 26.17890 34096 ft 464 kts 262°
2026-05-04 04:26 42.50323 26.09256 34095 ft 464 kts 262°
2026-05-04 04:26 42.49447 26.00571 34102 ft 464 kts 263°
2026-05-04 04:27 42.48566 25.91891 34116 ft 465 kts 263°
2026-05-04 04:27 42.47682 25.83269 34114 ft 465 kts 263°
2026-05-04 04:28 42.46782 25.74571 34118 ft 465 kts 263°
2026-05-04 04:28 42.45876 25.65887 34105 ft 465 kts 263°
2026-05-04 04:29 42.44970 25.57257 34124 ft 466 kts 263°
2026-05-04 04:29 42.44051 25.48571 34132 ft 467 kts 263°
2026-05-04 04:30 42.43114 25.39784 34131 ft 469 kts 263°
2026-05-04 04:30 42.42180 25.31083 34135 ft 471 kts 263°
2026-05-04 04:31 42.41224 25.22250 34127 ft 472 kts 263°
2026-05-04 04:31 42.40271 25.13512 34134 ft 471 kts 263°
2026-05-04 04:32 42.39310 25.04759 34133 ft 470 kts 263°
2026-05-04 04:32 42.38342 24.96010 34135 ft 469 kts 263°
2026-05-04 04:33 42.37034 24.84277 34138 ft 467 kts 263°
2026-05-04 04:33 42.28049 24.06886 34143 ft 458 kts 263°
2026-05-04 04:34 42.21539 23.53396 34162 ft 457 kts 264°
2026-05-04 04:34 42.20520 23.44914 34182 ft 458 kts 264°
2026-05-04 04:35 42.19473 23.36408 34174 ft 461 kts 264°
2026-05-04 04:35 42.18400 23.27880 34182 ft 462 kts 265°
2026-05-04 04:36 42.17858 23.23596 33871 ft 467 kts 265°
2026-05-04 04:36 42.17337 23.19483 33304 ft 466 kts 264°
2026-05-04 04:36 42.16764 23.15005 32628 ft 464 kts 264°
2026-05-04 04:36 42.16217 23.10737 32162 ft 459 kts 265°
2026-05-04 04:37 42.14607 22.98228 30740 ft 448 kts 266°
2026-05-04 04:37 42.14074 22.94098 30284 ft 445 kts 266°
2026-05-04 04:38 42.13543 22.90000 29759 ft 442 kts 266°
2026-05-04 04:38 42.13018 22.85956 29224 ft 438 kts 266°
2026-05-04 04:38 42.12491 22.81906 28746 ft 434 kts 266°
2026-05-04 04:38 42.11969 22.77904 28199 ft 431 kts 267°
2026-05-04 04:39 42.11458 22.74000 27790 ft 426 kts 268°
2026-05-04 04:39 42.10946 22.70085 27350 ft 423 kts 268°
2026-05-04 04:39 42.10432 22.66192 26883 ft 420 kts 268°
2026-05-04 04:39 42.09928 22.62332 26446 ft 416 kts 269°
2026-05-04 04:40 42.09683 22.58504 25888 ft 405 kts 279°
2026-05-04 04:40 42.09800 22.54733 25386 ft 401 kts 282°
2026-05-04 04:40 42.09957 22.50989 24920 ft 399 kts 282°
2026-05-04 04:40 42.10111 22.47291 24639 ft 392 kts 281°
2026-05-04 04:41 42.10159 22.43669 24527 ft 383 kts 277°
2026-05-04 04:41 42.09995 22.40109 24292 ft 380 kts 273°
2026-05-04 04:41 42.09667 22.36555 23770 ft 386 kts 270°
2026-05-04 04:41 42.09194 22.32943 22992 ft 396 kts 267°
2026-05-04 04:42 42.08627 22.29298 22452 ft 397 kts 265°
2026-05-04 04:42 42.08032 22.25704 22222 ft 389 kts 265°
2026-05-04 04:42 42.07491 22.22238 22098 ft 377 kts 267°
2026-05-04 04:42 42.07030 22.18786 21821 ft 371 kts 269°
2026-05-04 04:43 42.06627 22.15364 21323 ft 372 kts 269°
2026-05-04 04:43 42.06255 22.11905 20715 ft 375 kts 270°
2026-05-04 04:43 42.05934 22.08427 20273 ft 373 kts 271°
2026-05-04 04:43 42.05812 22.04978 19689 ft 365 kts 285°
2026-05-04 04:44 42.06638 22.01840 19042 ft 352 kts 307°
2026-05-04 04:44 42.07482 21.99996 18790 ft 348 kts 309°
2026-05-04 04:44 42.08778 21.97241 18374 ft 346 kts 308°
2026-05-04 04:44 42.09967 21.94418 17961 ft 347 kts 303°
2026-05-04 04:45 42.10893 21.91402 17594 ft 350 kts 295°
2026-05-04 04:45 42.11533 21.88231 17205 ft 352 kts 289°
2026-05-04 04:45 42.11948 21.84981 16817 ft 352 kts 284°
2026-05-04 04:47 42.12805 21.65443 14456 ft 344 kts 278°
2026-05-04 04:47 42.12896 21.62220 14067 ft 343 kts 278°
2026-05-04 04:47 42.12986 21.59015 13632 ft 342 kts 278°
2026-05-04 04:47 42.13076 21.55807 13037 ft 345 kts 277°
2026-05-04 04:48 42.13166 21.52581 12577 ft 344 kts 277°
2026-05-04 04:49 42.13505 21.39923 11266 ft 326 kts 277°
2026-05-04 04:49 42.13600 21.36921 11125 ft 315 kts 282°
2026-05-04 04:49 42.14240 21.34228 10975 ft 293 kts 307°
2026-05-04 04:49 42.15522 21.32196 10668 ft 281 kts 325°
2026-05-04 04:50 42.17153 21.30830 10351 ft 272 kts 341°
2026-05-04 04:50 42.18872 21.29910 10303 ft 258 kts 343°
2026-05-04 04:50 42.20576 21.29043 9771 ft 265 kts 343°
2026-05-04 04:50 42.22302 21.28159 9352 ft 266 kts 343°
2026-05-04 04:51 42.24032 21.27258 9012 ft 266 kts 342°
2026-05-04 04:51 42.25759 21.26353 8662 ft 266 kts 342°
2026-05-04 04:51 42.27478 21.25425 8335 ft 266 kts 337°
2026-05-04 04:51 42.28942 21.24006 8326 ft 253 kts 322°
2026-05-04 04:52 42.30178 21.22466 8480 ft 227 kts 322°
2026-05-04 04:52 42.31285 21.21076 8361 ft 212 kts 322°
2026-05-04 04:52 42.32332 21.19769 8257 ft 198 kts 322°
2026-05-04 04:52 42.33311 21.18554 8140 ft 185 kts 323°
2026-05-04 04:53 42.34234 21.17411 8001 ft 173 kts 323°
2026-05-04 04:53 42.35112 21.16329 7765 ft 169 kts 323°
2026-05-04 04:53 42.35981 21.15262 7465 ft 168 kts 323°
2026-05-04 04:53 42.36849 21.14196 7177 ft 168 kts 323°
2026-05-04 04:54 42.37688 21.13163 6955 ft 160 kts 322°
2026-05-04 04:54 42.38507 21.12156 6649 ft 159 kts 322°
2026-05-04 04:54 42.39323 21.11155 6337 ft 158 kts 321°
2026-05-04 04:54 42.40134 21.10156 6023 ft 157 kts 321°
2026-05-04 04:55 42.40932 21.09174 5704 ft 157 kts 320°
2026-05-04 04:55 42.41739 21.08181 5406 ft 156 kts 320°
2026-05-04 04:55 42.42541 21.07194 5110 ft 156 kts 320°
2026-05-04 04:55 42.43354 21.06194 4696 ft 160 kts 319°
2026-05-04 04:56 42.44178 21.05237 4443 ft 152 kts 329°
2026-05-04 04:56 42.45179 21.04903 4282 ft 150 kts 353°
2026-05-04 04:56 42.46231 21.04729 4029 ft 153 kts 353°
2026-05-04 04:56 42.47317 21.04600 3809 ft 162 kts 354°
2026-05-04 04:57 42.48445 21.04484 3542 ft 166 kts 354°
2026-05-04 04:57 42.49597 21.04368 3266 ft 165 kts 354°
2026-05-04 04:57 42.50738 21.04252 3004 ft 164 kts 355°
2026-05-04 04:57 42.51879 21.04137 2747 ft 164 kts 355°
2026-05-04 04:58 42.53015 21.04022 2492 ft 163 kts 355°
2026-05-04 04:58 42.54146 21.03908 2248 ft 162 kts 355°
2026-05-04 04:58 42.55269 21.03795 2005 ft 161 kts 355°
2026-05-04 04:58 42.56379 21.03674 1827 ft 159 kts 354°
2026-05-04 04:59 42.57432 21.03570 1777 ft 140 kts 356°
2026-05-04 04:59 42.58191 21.03487 1775 ft 47 kts 356°
2026-05-04 04:59 42.58369 21.03475 1777 ft 23 kts 360°
2026-05-04 04:59 42.58485 21.03453 1779 ft 9 kts 311°
2026-05-04 05:00 42.58462 21.03386 1779 ft 9 kts 213°
2026-05-04 05:00 42.58422 21.03314 1777 ft 10 kts 239°
2026-05-04 05:00 42.58322 21.03235 1776 ft 15 kts 173°
2026-05-04 05:01 42.58142 21.03254 1776 ft 36 kts 174°
2026-05-04 05:01 42.57860 21.03284 1776 ft 41 kts 175°
2026-05-04 05:01 42.57619 21.03305 1775 ft 18 kts 192°
2026-05-04 05:01 42.57553 21.03174 1775 ft 17 kts 260°
2026-05-04 05:02 42.57552 21.03106 1774 ft 0 kts 271°